Rugby, ND

5:38 PM CST on December 04, 2016 (GMT -0600)
Rugby Municipal

Weather History for KRUG - February, 2013

Change the Weather History Date:

Wednesday, February 20, 2013

  Actual Average Record
Temperature  
Mean Temperature -6 °F -  
Max Temperature 5 °F 25 °F 48 °F (1981)
Min Temperature -16 °F 6 °F -32 °F (1949)
Degree Days  
Heating Degree Days 70    
Moisture  
Dew Point -11 °F    
Average Humidity 73    
Maximum Humidity 85    
Minimum Humidity 64    
Precipitation  
Precipitation 0.00 in - - ()
Sea Level Pressure  
Sea Level Pressure 30.28 in    
Wind  
Wind Speed 16 mph (ESE)    
Max Wind Speed 28 mph    
Max Gust Speed 33 mph    
Visibility 8 miles    
Events Snow    
Averages and records for this station are not official NWS values.
T = Trace of Precipitation, MM = Missing Value Source: NWS Daily Summary

Daily Weather History Graph

Daily Weather History Graph

Search for Another Location

Airport or City:

Trip Planner

Search our weather history database for the weather conditions in past years. The results will help you decide how hot, cold, wet, or windy it might be!

Date:

Astronomy

Feb. 20, 2013 Rise Set
Actual Time 7:37 AM CST 6:10 PM CST
Civil Twilight 7:06 AM CST 6:42 PM CST
Nautical Twilight 6:29 AM CST 7:18 PM CST
Astronomical Twilight 5:53 AM CST 7:54 PM CST
Moon 1:18 PM CST (2/20) 4:14 AM CST (2/20)
Length of Visible Light 11h 36m
Length of Day
10h 32m
Waxing Gibbous, 76% of the Moon is Illuminated
Feb 20
Waxing Gibbous
Feb 25
Full
Mar 4
Last Quarter
Mar 11
New
Mar 19
First Quarter

Hourly Weather History & Observations

Time (CST) Temp. Windchill Dew Point Humidity Pressure Visibility Wind Dir Wind Speed Gust Speed Precip Events Conditions
12:15 AM -11.2 °F -35.8 °F -20.2 °F 64% 30.39 in 10.0 mi East 18.4 mph - N/A   Clear
12:35 AM -13.0 °F -36.0 °F -20.2 °F 70% 30.39 in 10.0 mi East 15.0 mph - N/A   Clear
12:55 AM -13.0 °F -36.0 °F -20.2 °F 70% 30.38 in 10.0 mi East 15.0 mph - N/A   Clear
1:15 AM -13.0 °F -36.8 °F -20.2 °F 70% 30.38 in 10.0 mi East 16.1 mph - N/A   Clear
1:35 AM -13.0 °F -37.5 °F -20.2 °F 70% 30.37 in 10.0 mi East 17.3 mph - N/A   Clear
1:55 AM -13.0 °F -34.3 °F -20.2 °F 70% 30.38 in 10.0 mi ESE 12.7 mph - N/A   Clear
2:15 AM -13.0 °F -36.0 °F -20.2 °F 70% 30.37 in 10.0 mi East 15.0 mph - N/A   Clear
2:35 AM -13.0 °F -32.4 °F -20.2 °F 70% 30.39 in 10.0 mi ESE 10.4 mph - N/A   Clear
2:55 AM -14.8 °F -33.5 °F -22.0 °F 70% 30.38 in 10.0 mi ESE 9.2 mph - N/A   Clear
3:15 AM -14.8 °F -35.6 °F -22.0 °F 70% 30.36 in 10.0 mi East 11.5 mph - N/A   Clear
3:35 AM -14.8 °F -37.5 °F -22.0 °F 70% 30.36 in 10.0 mi ESE 13.8 mph - N/A   Clear
3:55 AM -14.8 °F -30.8 °F -22.0 °F 70% 30.36 in 10.0 mi ESE 6.9 mph - N/A   Clear
4:15 AM -16.6 °F -37.9 °F -22.0 °F 76% 30.35 in 10.0 mi ESE 11.5 mph - N/A   Clear
4:35 AM -13.0 °F -35.2 °F -20.2 °F 70% 30.34 in 10.0 mi ESE 13.8 mph - N/A   Clear
4:55 AM -13.0 °F -37.5 °F -20.2 °F 70% 30.34 in 10.0 mi ESE 17.3 mph - N/A   Clear
5:15 AM -13.0 °F -36.8 °F -20.2 °F 70% 30.33 in 10.0 mi ESE 16.1 mph - N/A   Clear
5:35 AM -13.0 °F -34.3 °F -20.2 °F 70% 30.33 in 10.0 mi ESE 12.7 mph - N/A   Clear
5:55 AM -13.0 °F -36.0 °F -20.2 °F 70% 30.33 in 10.0 mi ESE 15.0 mph - N/A   Clear
6:15 AM -13.0 °F -33.4 °F -20.2 °F 70% 30.34 in 10.0 mi ESE 11.5 mph - N/A   Clear
6:35 AM -13.0 °F -35.2 °F -20.2 °F 70% 30.34 in 10.0 mi ESE 13.8 mph - N/A   Clear
6:55 AM -13.0 °F -35.2 °F -20.2 °F 70% 30.33 in 10.0 mi ESE 13.8 mph - N/A   Clear
7:15 AM -13.0 °F -34.3 °F -20.2 °F 70% 30.33 in 10.0 mi ESE 12.7 mph - N/A   Clear
7:35 AM -13.0 °F -36.0 °F -20.2 °F 70% 30.33 in 10.0 mi East 15.0 mph - N/A   Clear
7:55 AM -13.0 °F -35.2 °F -20.2 °F 70% 30.32 in 10.0 mi East 13.8 mph - N/A   Clear
8:15 AM -13.0 °F -34.3 °F -20.2 °F 70% 30.32 in 10.0 mi ESE 12.7 mph - N/A   Clear
8:35 AM -13.0 °F -32.4 °F -20.2 °F 70% 30.32 in 10.0 mi East 10.4 mph - N/A   Clear
8:55 AM -13.0 °F -34.3 °F -20.2 °F 70% 30.31 in 10.0 mi ESE 12.7 mph - N/A   Clear
9:15 AM -11.2 °F -32.9 °F -18.4 °F 70% 30.32 in 10.0 mi ESE 13.8 mph - N/A   Clear
9:35 AM -11.2 °F -35.2 °F -18.4 °F 70% 30.31 in 10.0 mi ESE 17.3 mph - N/A   Clear
9:55 AM -9.4 °F -31.4 °F -16.6 °F 71% 30.31 in 10.0 mi ESE 15.0 mph - N/A   Clear
10:15 AM -9.4 °F -32.1 °F -16.6 °F 71% 30.30 in 10.0 mi ESE 16.1 mph - N/A   Clear
10:35 AM -7.6 °F -25.7 °F -14.8 °F 71% 30.32 in 10.0 mi SE 10.4 mph - N/A   Clear
10:55 AM -5.8 °F -22.4 °F -13.0 °F 71% 30.33 in 10.0 mi SSE 9.2 mph - N/A   Scattered Clouds
11:15 AM -4.0 °F -21.2 °F -13.0 °F 65% 30.32 in 10.0 mi SE 10.4 mph - N/A   Overcast
11:35 AM -2.2 °F -18.9 °F -11.2 °F 66% 30.32 in 10.0 mi SE 10.4 mph - N/A   Overcast
11:55 AM -2.2 °F -22.9 °F -9.4 °F 71% 30.30 in 10.0 mi SE 16.1 mph 21.9 mph N/A   Overcast
12:15 PM -0.4 °F -19.9 °F -9.4 °F 66% 30.30 in 10.0 mi SE 15.0 mph - N/A   Overcast
12:35 PM -0.4 °F -18.4 °F -7.6 °F 72% 30.29 in 10.0 mi SE 12.7 mph - N/A   Overcast
12:55 PM -0.4 °F -19.2 °F -7.6 °F 72% 30.28 in 10.0 mi SE 13.8 mph 19.6 mph N/A   Overcast
1:15 PM -0.4 °F -21.2 °F -7.6 °F 72% 30.27 in 10.0 mi SE 17.3 mph - N/A   Overcast
1:35 PM -0.4 °F -21.7 °F -7.6 °F 72% 30.27 in 10.0 mi ESE 18.4 mph - N/A   Overcast
1:55 PM 1.4 °F -16.1 °F -5.8 °F 72% 30.27 in 10.0 mi SE 12.7 mph - N/A   Overcast
2:15 PM 1.4 °F -19.9 °F -4.0 °F 78% 30.25 in 10.0 mi ESE 19.6 mph - N/A   Overcast
2:35 PM 1.4 °F -19.9 °F -4.0 °F 78% 30.24 in 10.0 mi ESE 19.6 mph - N/A   Overcast
2:55 PM 1.4 °F -19.4 °F -4.0 °F 78% 30.24 in 10.0 mi SE 18.4 mph - N/A   Overcast
3:15 PM 1.4 °F -21.0 °F -2.2 °F 85% 30.23 in 7.0 mi ESE 21.9 mph - N/A   Overcast
3:35 PM 3.2 °F -18.1 °F -2.2 °F 78% 30.23 in 5.0 mi ESE 20.7 mph 27.6 mph N/A   Haze
3:55 PM 3.2 °F -18.1 °F -2.2 °F 78% 30.22 in 4.0 mi ESE 20.7 mph - N/A   Haze
4:15 PM 3.2 °F -18.6 °F -2.2 °F 78% 30.21 in 5.0 mi ESE 21.9 mph - N/A   Haze
4:35 PM 5.0 °F -16.7 °F -0.4 °F 78% 30.21 in 3.0 mi ESE 23.0 mph 31.1 mph N/A   Haze
4:55 PM 5.0 °F -17.5 °F -0.4 °F 78% 30.19 in 3.0 mi ESE 25.3 mph 29.9 mph N/A   Haze
5:15 PM 5.0 °F -17.9 °F -0.4 °F 78% 30.19 in 2.5 mi ESE 26.5 mph 31.1 mph N/A   Haze
5:35 PM 5.0 °F -16.7 °F -0.4 °F 78% 30.19 in 4.0 mi ESE 23.0 mph 29.9 mph N/A   Haze
5:55 PM 5.0 °F -16.2 °F -0.4 °F 78% 30.19 in 5.0 mi ESE 21.9 mph 26.5 mph N/A   Haze
6:15 PM 5.0 °F -17.5 °F -0.4 °F 78% 30.17 in 3.0 mi ESE 25.3 mph 32.2 mph N/A   Haze
6:35 PM 5.0 °F -18.3 °F -0.4 °F 78% 30.16 in 4.0 mi ESE 27.6 mph - N/A   Overcast
6:55 PM 5.0 °F -17.9 °F -0.4 °F 78% 30.15 in 3.0 mi ESE 26.5 mph 33.4 mph N/A   Overcast
7:15 PM 5.0 °F -16.2 °F -0.4 °F 78% 30.18 in 5.0 mi SE 21.9 mph - N/A   Overcast
7:35 PM 5.0 °F -15.7 °F -0.4 °F 78% 30.18 in 8.0 mi SE 20.7 mph 24.2 mph N/A   Overcast
7:55 PM 5.0 °F -14.7 °F -0.4 °F 78% 30.18 in 9.0 mi SE 18.4 mph 26.5 mph N/A   Overcast
8:15 PM 5.0 °F -15.2 °F -0.4 °F 78% 30.17 in 9.0 mi SE 19.6 mph - N/A   Overcast
8:35 PM 5.0 °F -16.2 °F -0.4 °F 78% 30.17 in 9.0 mi SE 21.9 mph 25.3 mph N/A   Overcast
9:15 PM 5.0 °F -13.6 °F -0.4 °F 78% 30.18 in 10.0 mi SE 16.1 mph 26.5 mph N/A   Overcast
9:35 PM 5.0 °F -14.7 °F -0.4 °F 78% 30.18 in 10.0 mi SE 18.4 mph 24.2 mph N/A   Overcast
9:55 PM 5.0 °F -13.0 °F -0.4 °F 78% 30.18 in 10.0 mi SSE 15.0 mph 20.7 mph N/A   Overcast
10:35 PM 5.0 °F -13.6 °F -0.4 °F 78% 30.19 in 4.0 mi SSE 16.1 mph 23.0 mph N/A Snow Light Snow
10:55 PM 5.0 °F -14.2 °F -0.4 °F 78% 30.19 in 4.0 mi SSE 17.3 mph - N/A Snow Light Snow
11:15 PM 5.0 °F -13.0 °F -0.4 °F 78% 30.20 in 5.0 mi SE 15.0 mph 20.7 mph N/A   Haze
11:35 PM 5.0 °F -14.7 °F -0.4 °F 78% 30.19 in 3.0 mi SE 18.4 mph 23.0 mph N/A   Haze
11:55 PM 5.0 °F -13.6 °F -0.4 °F 78% 30.18 in 3.0 mi SE 16.1 mph 25.3 mph N/A Snow Light Snow